NOAA 16 DEB, 41661

Orbit data source: Space-Track

NOAA 16 DEB, 41661 is space debris in SSO originally from a launch on Thu, 21 Sep 2000 UTC launched from the Air Force Western Test Range (AFWTR). Debris objects in space refer to the collection of defunct objects orbiting the Earth. Examples of debris include non-operational satellites, rocket bodies, and fragments generated from explosions, collisions, or faulty payload assembly.

Loading next visibility...
Identifier
41661, 2000-055PA
Orbit
SSO
Country
Flag of USUS
Related business
Manufacturer
Unknown
Mission
Spacecraft
Bus & Motor
Unknown
Mass
Unknown
Launch date (UTC)
2000-09-21 (26 years ago)
Launch vehicle
Unknown
Launch site
Air Force Western Test Range (AFWTR)
Object type
Payload
Rocket body
Debris
Shape & HBR
Unknown shape, 0.1 m
Radar Cross Section
Small (<0.1 m²)

Expand to show TLE details & history
Last TLE update: 17 hours ago

TLE from 17 hours ago
0 NOAA 16 DEB
1 41661U 00055PA  26127.51412714  .00003681  00000-0  10784-2 0  9991
2 41661  99.0384 325.8265 0019856   6.8221 353.3234 14.44447130521858
Epoch: 2026-05-07T12:20Z
TLE epoch observation values (Epoch: 2026-05-07T12:20:20.584Z)
Latitude
-0.00009°
Longitude
-84.61843°
Altitude
732.732 km
Speed
7.496 km/s
True Right ascension
21h 43m 18s
True Declination
0° 00' 00"
Sunlit
Object was in daylight at epoch
Visualization orbit readout
Latitude
Unknown
Longitude
Unknown
Altitude
Unknown
Speed
Unknown
Apparent Right ascension
Unknown
Apparent Declination
Unknown
Sunlit
N/A
Visualization observer readout
Local Sidereal Time
13:08:52
Azimuth
Unknown
Elevation
Unknown
Doppler factor
Unknown
Orbital elements
Apogee altitude
755.121 km
Perigee altitude
726.849 km
Semi-major axis
7,119.122 km
Eccentricity
0.00199
Inclination
99.0384°
RAAN
325.8265°
Arg. of periapsis
6.8221°
True anomaly
353.29688°
Mean anomaly
353.3234°
Eccentric anomaly
353.31015°
Mean motion
3.6133 °/min
Orbital period
99.63 mins
BSTAR
0.0010784
Loading maneuver chart data...
Computing Atmospheric mass density...

Documentation

Showing up to 5 results
|